Berlin, NH

3:43 PM EDT on June 26, 2017 (GMT -0400)
Berlin Municipal

Weather History for KBML - October, 2012

Change the Weather History Date:

Thursday, October 25, 2012

  Actual Average Record
Temperature  
Mean Temperature 44 °F -  
Max Temperature 63 °F 48 °F 66 °F (2000)
Min Temperature 26 °F 26 °F 18 °F (1997)
Degree Days  
Heating Degree Days 20    
Moisture  
Dew Point 30 °F    
Average Humidity 66    
Maximum Humidity 92    
Minimum Humidity 24    
Precipitation  
Precipitation 0.00 in - - ()
Sea Level Pressure  
Sea Level Pressure 30.27 in    
Wind  
Wind Speed 1 mph (SSE)    
Max Wind Speed 6 mph    
Max Gust Speed -    
Visibility 10 miles    
Events      
Averages and records for this station are not official NWS values.
T = Trace of Precipitation, MM = Missing Value Source: NWS Daily Summary

Daily Weather History Graph

Daily Weather History Graph

Search for Another Location

Airport or City:

Trip Planner

Search our weather history database for the weather conditions in past years. The results will help you decide how hot, cold, wet, or windy it might be!

Date:

Astronomy

Oct. 25, 2012 Rise Set
Actual Time 7:13 AM EDT 5:43 PM EDT
Civil Twilight 6:43 AM EDT 6:13 PM EDT
Nautical Twilight 6:09 AM EDT 6:47 PM EDT
Astronomical Twilight 5:35 AM EDT 7:20 PM EDT
Moon 3:35 PM EDT (10/25) 2:58 AM EDT (10/25)
Length of Visible Light 11h 29m
Length of Day
10h 29m
Waxing Gibbous, 84% of the Moon is Illuminated
Oct 25
Waxing Gibbous
Oct 29
Full
Nov 6
Last Quarter
Nov 13
New
Nov 20
First Quarter

Hourly Weather History & Observations

Time (EDT) Temp. Windchill Dew Point Humidity Pressure Visibility Wind Dir Wind Speed Gust Speed Precip Events Conditions
12:52 AM 37.9 °F - 34.0 °F 86% 30.26 in 10.0 mi Calm Calm - N/A   Mostly Cloudy
1:52 AM 30.9 °F - 28.9 °F 92% 30.27 in 10.0 mi Calm Calm - N/A   Clear
2:52 AM 30.0 °F - 27.0 °F 88% 30.27 in 10.0 mi Calm Calm - N/A   Clear
3:52 AM 28.0 °F - 25.0 °F 88% 30.28 in 10.0 mi Calm Calm - N/A   Clear
4:52 AM 27.0 °F - 25.0 °F 92% 30.27 in 10.0 mi Calm Calm - N/A   Clear
5:52 AM 26.1 °F - 23.0 °F 88% 30.30 in 10.0 mi Calm Calm - N/A   Clear
6:52 AM 26.1 °F - 23.0 °F 88% 30.31 in 10.0 mi Calm Calm - N/A   Clear
9:52 AM 41.0 °F - 30.9 °F 67% 30.34 in 10.0 mi Calm Calm - N/A   Clear
10:52 AM 48.0 °F - 30.0 °F 50% 30.32 in 10.0 mi Calm Calm - N/A   Clear
11:52 AM 54.0 °F - 28.0 °F 37% 30.30 in 10.0 mi Calm Calm - N/A   Clear
12:52 PM 59.0 °F - 24.1 °F 26% 30.27 in 10.0 mi SSE 4.6 mph - N/A   Clear
1:52 PM 62.1 °F - 25.0 °F 24% 30.25 in 10.0 mi South 4.6 mph - N/A   Clear
2:52 PM 63.0 °F - 27.0 °F 26% 30.22 in 10.0 mi South 5.8 mph - N/A   Clear
4:52 PM 61.0 °F - 34.0 °F 36% 30.23 in 10.0 mi SSE 4.6 mph - N/A   Overcast
5:52 PM 57.9 °F - 36.0 °F 44% 30.24 in 10.0 mi Calm Calm - N/A   Mostly Cloudy
6:52 PM 48.0 °F - 37.9 °F 68% 30.26 in 10.0 mi Calm Calm - N/A   Clear
7:52 PM 46.0 °F - 37.9 °F 73% 30.27 in 10.0 mi Calm Calm - N/A   Scattered Clouds
9:52 PM 42.1 °F 40.2 °F 37.9 °F 85% 30.26 in 10.0 mi SE 3.5 mph - N/A   Overcast
10:52 PM 43.0 °F - 37.9 °F 82% 30.25 in 10.0 mi Calm Calm - N/A   Overcast
11:52 PM 39.9 °F - 36.0 °F 86% 30.26 in 10.0 mi Calm Calm - N/A   Partly Cloudy